Location: Azalea Creek
(37.1280°N, 119.2623°W)
Time: 09:25:59
(UTC+00:00)

STARLINK-49 - Pass Details

Date: 17 February 2020
Orbit: 529 x 530 km, 53.0° (Epoch: 05 April)

Event Time Altitude Azimuth Distance (km) Brightness Sun altitude
Rises 03:14:52 0° 230° (SW) 2,653 7.9 -20.0°
Reaches altitude 10° 03:17:05 10° 231° (SW) 1,767 6.9 -20.4°
Maximum altitude 03:21:05 77° 318° (NW) 547 3.6 -21.2°
Enters shadow 03:21:47 58° 26° (NNE) 621 3.6 -21.3°
